• In Österreich
  • Länderverzeichnis
  • Für 7 Tage
  • Wassertemperatur
  • Satellitenkarten
  • Wetterkarte
  • News
  • Widgets
  • user-avatar
    Anmelden

    Stündliche Wetter Santiago del Estero

    Heute, 23 Februar, Freitag

    Zeit Temperatur Niederschläge Wind Luftdruck Luftfeuchtigkeit
    00:00 +25°C° 0 mm 3 m/S 743 mmHg 41%
    01:00 +25°C° 0 mm 3 m/S 742 mmHg 43%
    02:00 +24°C° 0 mm 3 m/S 742 mmHg 44%
    03:00 +24°C° 0 mm 3 m/S 742 mmHg 46%
    04:00 +22°C° 0 mm 3 m/S 742 mmHg 47%
    05:00 +22°C° 0 mm 3 m/S 742 mmHg 49%
    06:00 +23°C° 0 mm 4 m/S 742 mmHg 47%
    07:00 +25°C° 0 mm 4 m/S 743 mmHg 46%
    08:00 +27°C° 0 mm 5 m/S 743 mmHg 44%
    09:00 +29°C° 0 mm 5 m/S 743 mmHg 39%
    10:00 +32°C° 0 mm 6 m/S 743 mmHg 35%
    11:00 +34°C° 0 mm 6 m/S 743 mmHg 30%
    12:00 +35°C° 0 mm 6 m/S 743 mmHg 28%
    13:00 +36°C° 0 mm 5 m/S 742 mmHg 27%
    14:00 +37°C° 0 mm 5 m/S 741 mmHg 25%
    15:00 +37°C° 0 mm 5 m/S 741 mmHg 26%
    16:00 +36°C° 0 mm 5 m/S 740 mmHg 26%
    17:00 +36°C° 0 mm 5 m/S 740 mmHg 26%
    18:00 +34°C° 0 mm 4 m/S 740 mmHg 31%
    19:00 +32°C° 0 mm 4 m/S 741 mmHg 35%
    20:00 +29°C° 0 mm 4 m/S 741 mmHg 39%
    21:00 +28°C° 0 mm 4 m/S 742 mmHg 40%
    22:00 +27°C° 0 mm 4 m/S 742 mmHg 41%
    23:00 +27°C° 0 mm 4 m/S 743 mmHg 42%

    Morgen, 24 Februar, Samstag

    Zeit Temperatur Niederschläge Wind Luftdruck Luftfeuchtigkeit
    00:00 +26°C° 0 mm 3 m/S 742 mmHg 44%
    01:00 +25°C° 0 mm 3 m/S 742 mmHg 47%
    02:00 +25°C° 0 mm 3 m/S 742 mmHg 49%
    03:00 +24°C° 0 mm 2 m/S 742 mmHg 53%
    04:00 +23°C° 0 mm 2 m/S 742 mmHg 56%
    05:00 +23°C° 0 mm 1 m/S 742 mmHg 59%
    06:00 +24°C° 0 mm 1 m/S 743 mmHg 57%
    07:00 +25°C° 0 mm 2 m/S 744 mmHg 54%
    08:00 +27°C° 0 mm 2 m/S 744 mmHg 52%
    09:00 +29°C° 0 mm 2 m/S 744 mmHg 47%
    10:00 +30°C° 0 mm 3 m/S 744 mmHg 42%
    11:00 +33°C° 0 mm 3 m/S 745 mmHg 37%
    12:00 +34°C° 0 mm 3 m/S 744 mmHg 34%
    13:00 +35°C° 0 mm 3 m/S 743 mmHg 32%
    14:00 +36°C° 0 mm 3 m/S 743 mmHg 29%
    15:00 +36°C° 0 mm 3 m/S 742 mmHg 29%
    16:00 +36°C° 0 mm 3 m/S 742 mmHg 29%
    17:00 +36°C° 0 mm 3 m/S 741 mmHg 30%
    18:00 +34°C° 0 mm 3 m/S 742 mmHg 34%
    19:00 +31°C° 0 mm 2 m/S 742 mmHg 38%
    20:00 +29°C° 0 mm 2 m/S 742 mmHg 42%
    21:00 +29°C° 0 mm 2 m/S 743 mmHg 43%
    22:00 +28°C° 0 mm 2 m/S 743 mmHg 44%
    23:00 +27°C° 0 mm 2 m/S 744 mmHg 44%

    übermorgen, 25 Februar, Sonntag

    Zeit Temperatur Niederschläge Wind Luftdruck Luftfeuchtigkeit
    00:00 +27°C° 0 mm 1 m/S 743 mmHg 46%
    01:00 +26°C° 0 mm 1 m/S 743 mmHg 48%
    02:00 +25°C° 0 mm 1 m/S 743 mmHg 50%
    03:00 +24°C° 0 mm 1 m/S 743 mmHg 52%
    04:00 +24°C° 0 mm 1 m/S 743 mmHg 54%
    05:00 +23°C° 0 mm 1 m/S 743 mmHg 56%
    06:00 +25°C° 0 mm 1 m/S 743 mmHg 52%
    07:00 +27°C° 0 mm 1 m/S 744 mmHg 48%
    08:00 +28°C° 0 mm 2 m/S 744 mmHg 45%
    09:00 +30°C° 0 mm 2 m/S 744 mmHg 41%
    10:00 +33°C° 0 mm 3 m/S 744 mmHg 38%
    11:00 +35°C° 0 mm 4 m/S 744 mmHg 35%
    12:00 +36°C° 0 mm 3 m/S 743 mmHg 33%
    13:00 +37°C° 0 mm 3 m/S 743 mmHg 31%
    14:00 +38°C° 0 mm 3 m/S 742 mmHg 30%
    15:00 +37°C° 0 mm 3 m/S 741 mmHg 31%
    16:00 +36°C° 0 mm 3 m/S 741 mmHg 33%
    17:00 +36°C° 0 mm 3 m/S 740 mmHg 34%
    18:00 +34°C° 0 mm 3 m/S 741 mmHg 37%
    19:00 +32°C° 0 mm 2 m/S 741 mmHg 40%
    20:00 +30°C° 0 mm 2 m/S 742 mmHg 43%
    21:00 +29°C° 0 mm 2 m/S 742 mmHg 44%
    22:00 +29°C° 0 mm 2 m/S 742 mmHg 44%
    23:00 +29°C° 0 mm 2 m/S 743 mmHg 45%

    26 Februar, Montag

    Zeit Temperatur Niederschläge Wind Luftdruck Luftfeuchtigkeit
    00:00 +28°C° 0 mm 2 m/S 742 mmHg 48%
    01:00 +28°C° 0 mm 2 m/S 742 mmHg 50%
    02:00 +28°C° 0 mm 1 m/S 742 mmHg 53%
    03:00 +27°C° 0,2 mm 1 m/S 742 mmHg 57%
    04:00 +26°C° 0,2 mm 1 m/S 742 mmHg 62%
    05:00 +26°C° 0,2 mm 1 m/S 742 mmHg 66%
    06:00 +27°C° 0,1 mm 1 m/S 742 mmHg 64%
    07:00 +28°C° 0,1 mm 1 m/S 743 mmHg 61%
    08:00 +29°C° 0,1 mm 2 m/S 743 mmHg 59%
    09:00 +30°C° 0 mm 2 m/S 743 mmHg 55%
    10:00 +31°C° 0 mm 3 m/S 743 mmHg 51%
    11:00 +33°C° 0 mm 3 m/S 743 mmHg 47%
    12:00 +33°C° 0 mm 3 m/S 742 mmHg 46%
    13:00 +34°C° 0 mm 3 m/S 741 mmHg 45%
    14:00 +34°C° 0 mm 3 m/S 740 mmHg 45%
    15:00 +34°C° 0 mm 2 m/S 740 mmHg 44%
    16:00 +34°C° 0 mm 2 m/S 739 mmHg 44%
    17:00 +34°C° 0 mm 2 m/S 739 mmHg 44%
    18:00 +31°C° 0,3 mm 2 m/S 739 mmHg 50%
    19:00 +29°C° 0,3 mm 1 m/S 739 mmHg 56%
    20:00 +28°C° 0,3 mm 1 m/S 740 mmHg 62%
    21:00 +27°C° 0,5 mm 1 m/S 740 mmHg 65%
    22:00 +26°C° 0,5 mm 1 m/S 740 mmHg 68%
    23:00 +26°C° 0,5 mm 1 m/S 740 mmHg 71%

    27 Februar, Dienstag

    Zeit Temperatur Niederschläge Wind Luftdruck Luftfeuchtigkeit
    00:00 +25°C° 0,6 mm 1 m/S 740 mmHg 73%
    01:00 +25°C° 0,6 mm 1 m/S 740 mmHg 76%
    02:00 +24°C° 0,6 mm 1 m/S 740 mmHg 78%
    03:00 +24°C° 0,8 mm 1 m/S 740 mmHg 80%
    04:00 +24°C° 0,8 mm 1 m/S 740 mmHg 82%
    05:00 +24°C° 0,8 mm 1 m/S 740 mmHg 85%
    06:00 +25°C° 0,1 mm 1 m/S 740 mmHg 80%
    07:00 +26°C° 0,1 mm 1 m/S 740 mmHg 76%
    08:00 +27°C° 0,1 mm 1 m/S 741 mmHg 71%
    09:00 +29°C° 0 mm 2 m/S 741 mmHg 63%
    10:00 +31°C° 0 mm 3 m/S 741 mmHg 56%
    11:00 +34°C° 0 mm 4 m/S 741 mmHg 48%
    12:00 +35°C° 0,3 mm 4 m/S 740 mmHg 45%
    13:00 +36°C° 0,3 mm 3 m/S 740 mmHg 42%
    14:00 +36°C° 0,3 mm 3 m/S 739 mmHg 39%
    15:00 +36°C° 0 mm 3 m/S 739 mmHg 39%
    16:00 +36°C° 0 mm 3 m/S 739 mmHg 39%
    17:00 +36°C° 0 mm 3 m/S 738 mmHg 39%
    18:00 +35°C° 0 mm 3 m/S 739 mmHg 43%
    19:00 +32°C° 0 mm 2 m/S 739 mmHg 47%
    20:00 +30°C° 0 mm 2 m/S 739 mmHg 50%
    21:00 +29°C° 0,8 mm 3 m/S 740 mmHg 56%
    22:00 +28°C° 0,8 mm 3 m/S 740 mmHg 61%
    23:00 +27°C° 0,8 mm 3 m/S 740 mmHg 66%

    28 Februar, Mittwoch

    Zeit Temperatur Niederschläge Wind Luftdruck Luftfeuchtigkeit
    00:00 +27°C° 0,6 mm 3 m/S 740 mmHg 72%
    01:00 +26°C° 0,6 mm 3 m/S 740 mmHg 78%
    02:00 +25°C° 0,6 mm 3 m/S 740 mmHg 84%
    03:00 +25°C° 0,5 mm 2 m/S 740 mmHg 83%
    04:00 +25°C° 0,5 mm 2 m/S 740 mmHg 82%
    05:00 +25°C° 0,5 mm 2 m/S 740 mmHg 81%
    06:00 +26°C° 0,2 mm 2 m/S 741 mmHg 77%
    07:00 +27°C° 0,2 mm 1 m/S 741 mmHg 73%
    08:00 +28°C° 0,2 mm 1 m/S 742 mmHg 69%
    09:00 +30°C° 0,2 mm 2 m/S 742 mmHg 63%
    10:00 +31°C° 0,2 mm 2 m/S 742 mmHg 56%
    11:00 +34°C° 0,2 mm 3 m/S 742 mmHg 50%
    12:00 +34°C° 0,4 mm 3 m/S 741 mmHg 48%
    13:00 +35°C° 0,4 mm 3 m/S 740 mmHg 45%
    14:00 +35°C° 0,4 mm 3 m/S 740 mmHg 43%
    15:00 +35°C° 0 mm 3 m/S 740 mmHg 45%
    16:00 +34°C° 0 mm 3 m/S 739 mmHg 47%
    17:00 +34°C° 0 mm 3 m/S 739 mmHg 49%
    18:00 +31°C° 0,5 mm 3 m/S 739 mmHg 55%
    19:00 +30°C° 0,5 mm 3 m/S 740 mmHg 60%
    20:00 +29°C° 0,5 mm 3 m/S 740 mmHg 65%
    21:00 +28°C° 0,3 mm 3 m/S 740 mmHg 67%
    22:00 +27°C° 0,3 mm 3 m/S 741 mmHg 69%
    23:00 +27°C° 0,3 mm 3 m/S 741 mmHg 72%
    Mehr zeigen